[[{"header":{"parameterUnit":"m.s-1","parameterCategory":1,"la1":30.2991,"la2":30.254,"lo1":-89.0895,"lo2":-89.0444,"dy":0.0017,"dx":0.0017,"nx":28,"ny":28,"refTime":"2023-10-11T09:00:00:Z","depth":0,"parameterNumber":2,"parameterNumberName":"U-component_of_WINDS"},"data":[0,0,0,0,0,0,0,0,0,0,0,0,0,0,0,0,0,0,0,0,0,0,0,0,0,0,0,0,0,0,0,0,0,0,0,0,0,0,0,0,0,0,0,0,0,0,0,0,0,0,0,0,0,0,0,0,0,0,-3.0929,-3.0929,0,-3.09,-3.09,-3.09,-3.0808,-3.0806,-3.0804,-3.0803,-3.0775,-3.0776,-3.0777,0,0,0,0,0,0,0,0,0,0,0,0,0,-3.0909,-3.091,-3.093,-3.0929,-3.0929,-3.09,-3.09,-3.09,-3.0809,-3.0806,-3.0804,-3.0802,-3.0775,-3.0776,-3.0777,0,0,0,0,0,0,0,0,0,0,0,0,0,-3.0903,-3.091,-3.093,-3.088,-3.0875,-3.09,-3.09,-3.0899,-3.0809,-3.0806,-3.0803,-3.08,-3.0774,-3.0776,-3.0778,-3.0849,0,0,-3.0783,-3.0784,0,0,0,0,0,0,0,0,-3.0903,-3.0903,-3.0888,-3.0883,-3.0878,-3.0855,-3.0882,-3.0883,-3.081,-3.0835,-3.0802,-3.0799,-3.0804,-3.0803,-3.0805,-3.0848,-3.0847,-3.0783,-3.0784,-3.0785,-3.0785,0,0,0,0,0,0,0,-3.0904,-3.0904,-3.0918,-3.0888,-3.0882,-3.086,-3.0856,-3.0882,-3.0837,-3.0832,-3.0825,-3.0823,-3.0801,-3.0803,-3.0803,-3.0846,-3.0783,-3.0785,-3.0786,-3.0786,-3.0946,-3.0949,0,0,0,0,0,0,-3.0911,-3.0905,-3.0919,-3.0917,-3.0883,-3.0863,-3.0858,-3.0865,-3.0836,-3.0829,-3.0826,-3.0819,-3.0802,-3.0801,-3.0802,-3.0883,-3.0785,-3.0787,-3.0788,-3.0943,-3.0947,-3.0951,0,0,0,0,0,0,-3.0911,-3.0913,-3.092,-3.0909,-3.0908,-3.0866,-3.0875,-3.0867,-3.0868,-3.0831,-3.0823,-3.0836,-3.0799,-3.08,-3.0838,-3.0881,-3.0787,-3.0789,-3.0939,-3.0944,-3.0949,-3.1047,0,0,0,0,0,0,-3.091,-3.0913,-3.094,-3.0911,-3.0909,-3.0956,-3.0878,-3.0868,-3.0871,-3.0862,-3.0839,-3.0832,-3.0797,-3.0836,-3.084,-3.0882,-3.079,-3.0935,-3.0942,-3.0947,-3.104,-3.1055,-3.1067,0,0,0,0,0,-3.091,-3.0969,-3.0941,-3.0944,-3.0941,-3.0959,-3.0958,-3.0916,-3.0875,-3.0901,-3.0878,-3.0833,-3.0876,-3.084,-3.0844,-3.0887,-3.0932,-3.094,-3.0947,-3.1034,-3.1052,-3.1067,0,0,0,0,0,0,-3.1005,-3.0964,-3.0933,-3.0984,-3.0976,-3.0943,-3.0975,-3.0936,-3.094,-3.0931,-3.0879,-3.0875,-3.092,-3.0908,-3.0869,-3.0955,-3.0897,-3.0905,-3.0961,-3.0978,-3.0992,-3.0994,-3.0792,0,0,0,0,0,-3.1032,-3.1049,-3.1013,-3.1061,-3.1058,-3.1018,-3.1024,-3.0992,-3.0981,-3.0977,-3.0956,-3.0948,-3.0959,-3.0968,-3.0977,-3.1038,-3.1031,-3.1069,-3.1083,-3.1095,-3.1102,-3.1133,-3.115,-3.0974,-3.0974,-3.0974,0,0,-3.1088,-3.1068,-3.1082,-3.108,-3.1069,-3.1089,-3.1015,-3.1039,-3.1053,-3.0981,-3.1015,-3.1,-3.0987,-3.1037,-3.1058,-3.1028,-3.115,-3.1104,-3.1113,-3.1115,-3.1143,-3.1159,-3.1174,-3.0979,-3.0978,-3.0978,0,0,-3.1199,-3.1186,-3.1225,-3.1215,-3.12,-3.1172,-3.1182,-3.1155,-3.1142,-3.1176,-3.1122,-3.1139,-3.116,-3.1153,-3.1152,-3.1261,-3.122,-3.1265,-3.1337,-3.1368,-3.1382,-3.1394,-3.1433,-3.1448,-3.1273,-3.1274,-3.1274,0,-3.1271,-3.1297,-3.125,-3.1277,-3.1277,-3.1213,-3.1252,-3.1245,-3.1234,-3.1237,-3.1203,-3.1228,-3.1215,-3.1262,-3.1288,-3.129,-3.13,-3.1268,-3.1384,-3.1395,-3.1406,-3.1442,-3.1457,-3.1279,-3.1278,-3.1278,-3.1277,0,-3.1386,-3.1405,-3.1438,-3.1428,-3.1432,-3.1466,-3.1424,-3.1434,-3.1402,-3.1379,-3.1414,-3.1396,-3.14,-3.1409,-3.1378,-3.1452,-3.1434,-3.1393,-3.1333,-3.1429,-3.1462,-3.1476,-3.1287,-3.1285,-3.1283,-3.1282,0,0,-3.1556,-3.1519,-3.1532,-3.1526,-3.1505,-3.1519,-3.1549,-3.1552,-3.1562,-3.1557,-3.1581,-3.16,-3.1562,-3.1561,-3.1529,-3.1557,-3.1644,-3.1512,-3.1511,-3.1537,-3.1724,-3.1755,-3.1772,-3.1617,-3.1619,-3.1621,-3.1725,0,-3.1662,-3.171,-3.1668,-3.1725,-3.1742,-3.1681,-3.1707,-3.1697,-3.1676,-3.1688,-3.1665,-3.1679,-3.1628,-3.1627,-3.1651,-3.1628,-3.1681,-3.162,-3.1639,-3.164,-3.1644,-3.1789,-3.1821,-3.192,-3.1738,-3.174,-3.1742,0,-3.1791,-3.179,-3.1848,-3.1822,-3.1828,-3.1852,-3.1851,-3.1863,-3.1851,-3.1833,-3.1833,-3.1793,-3.1822,-3.1764,-3.1803,-3.1763,-3.1768,-3.1758,-3.1761,-3.1761,-3.1697,-3.1793,-3.1951,-3.1966,-3.1762,-3.176,-3.1759,0,-3.1909,-3.1923,-3.1959,-3.1956,-3.1927,-3.1945,-3.1934,-3.1919,-3.1923,-3.1923,-3.1925,-3.1929,-3.1931,-3.1935,-3.1897,-3.1859,-3.1941,-3.188,-3.1928,-3.1929,-3.1948,-3.1947,-3.2109,-3.1952,-3.1952,-3.1952,-3.1952,0,-3.203,-3.2069,-3.2011,-3.2034,-3.2075,-3.2027,-3.2069,-3.2052,-3.2038,-3.2057,-3.2005,-3.2023,-3.1973,-3.1987,-3.1958,-3.1995,-3.1996,-3.1983,-3.1975,-3.1988,-3.199,-3.199,-3.1983,-3.1956,-3.1955,-3.1954,-3.1954,0,-3.2169,-3.2133,-3.2168,-3.2137,-3.213,-3.2162,-3.2136,-3.2156,-3.2131,-3.2155,-3.2158,-3.212,-3.2133,-3.2097,-3.2105,-3.2085,-3.2138,-3.2119,-3.2142,-3.2136,-3.2186,-3.2182,-3.2354,-3.2375,-3.2205,-3.2207,-3.2208,0,-3.2249,-3.2277,-3.2249,-3.2257,-3.2248,-3.2262,-3.2266,-3.222,-3.2226,-3.2214,-3.2236,-3.2245,-3.2249,-3.2274,-3.2247,-3.2253,-3.2234,-3.2294,-3.2234,-3.2246,-3.2234,-3.2233,-3.2236,-3.2306,-3.2308,-3.231,-3.2311,0,-3.2395,-3.2375,-3.2382,-3.2383,-3.2389,-3.2387,-3.2383,-3.2393,-3.2344,-3.2354,-3.2366,-3.237,-3.2377,-3.2387,-3.2387,-3.2376,-3.2336,-3.233,-3.2341,-3.2355,-3.2367,-3.2361,-3.2175,-3.2326,-3.2325,-3.2324,-3.2323,-3.2322,-3.2506,-3.2527,-3.2511,-3.252,-3.2512,-3.2508,-3.2525,-3.2503,-3.2512,-3.2514,-3.2487,-3.2505,-3.2492,-3.2488,-3.2481,-3.2496,-3.2468,-3.2485,-3.2489,-3.2494,-3.2502,-3.2365,-3.2496,-3.2495,-3.2495,-3.2494,-3.2494,0,-3.2648,-3.2635,-3.2644,-3.2638,-3.2646,-3.2606,-3.2599,-3.2608,-3.2625,-3.2616,-3.2621,-3.2636,-3.2645,-3.2619,-3.2625,-3.2641,-3.2623,-3.2644,-3.2642,-3.264,-3.2526,-3.2516,-3.2659,-3.2659,-3.2659,-3.2659,-3.2659,-3.2659,-3.2723,-3.2758,-3.2736,-3.2766,-3.2752,-3.2768,-3.2767,-3.2764,-3.2757,-3.2775,-3.2782,-3.2765,-3.2749,-3.2753,-3.276,-3.2752,-3.2757,-3.2785,-3.2771,-3.2665,-3.2648,-3.2633,-3.2623,-3.2786,-3.2786,-3.2883,-3.2884,-3.2885]},{"header":{"parameterUnit":"m.s-1","parameterCategory":1,"la1":30.2991,"la2":30.254,"lo1":-89.0895,"lo2":-89.0444,"dy":0.0017,"dx":0.0017,"nx":28,"ny":28,"refTime":"2023-10-11T09:00:00:Z","depth":0,"parameterNumber":3,"parameterNumberName":"V-component_of_WINDS"},"data":[0,0,0,0,0,0,0,0,0,0,0,0,0,0,0,0,0,0,0,0,0,0,0,0,0,0,0,0,0,0,0,0,0,0,0,0,0,0,0,0,0,0,0,0,0,0,0,0,0,0,0,0,0,0,0,0,0,0,-1.8173,-1.8173,0,-1.8189,-1.8189,-1.8189,-1.8161,-1.816,-1.8159,-1.8158,-1.8174,-1.8175,-1.8177,0,0,0,0,0,0,0,0,0,0,0,0,0,-1.8116,-1.8118,-1.8173,-1.8173,-1.8173,-1.8189,-1.8189,-1.8189,-1.8161,-1.816,-1.8159,-1.8158,-1.8174,-1.8175,-1.8177,0,0,0,0,0,0,0,0,0,0,0,0,0,-1.8137,-1.8118,-1.8173,-1.8161,-1.816,-1.8189,-1.8189,-1.8189,-1.8161,-1.816,-1.8159,-1.8157,-1.8173,-1.8175,-1.8177,-1.8217,0,0,-1.8183,-1.8184,0,0,0,0,0,0,0,0,-1.8136,-1.814,-1.8162,-1.8162,-1.8161,-1.8171,-1.8175,-1.8199,-1.8162,-1.8161,-1.8158,-1.8156,-1.8174,-1.8176,-1.8182,-1.8218,-1.8219,-1.8183,-1.8184,-1.8185,-1.8186,0,0,0,0,0,0,0,-1.8135,-1.8139,-1.8179,-1.8163,-1.8162,-1.8154,-1.8156,-1.8179,-1.8175,-1.8161,-1.8159,-1.8161,-1.8174,-1.818,-1.8182,-1.8219,-1.8183,-1.8185,-1.8186,-1.8187,-1.8288,-1.8289,0,0,0,0,0,0,-1.8135,-1.8138,-1.8178,-1.8179,-1.8145,-1.8157,-1.8158,-1.8169,-1.8175,-1.8174,-1.8162,-1.816,-1.8178,-1.818,-1.8183,-1.823,-1.8185,-1.8187,-1.8188,-1.8286,-1.8288,-1.829,0,0,0,0,0,0,-1.8134,-1.8139,-1.8178,-1.8158,-1.8162,-1.8159,-1.8172,-1.817,-1.8177,-1.8176,-1.8175,-1.817,-1.8177,-1.818,-1.8209,-1.823,-1.8188,-1.819,-1.8285,-1.8287,-1.8289,-1.8325,0,0,0,0,0,0,-1.8132,-1.8139,-1.8154,-1.8159,-1.8164,-1.8204,-1.8173,-1.8172,-1.8181,-1.8178,-1.8183,-1.8183,-1.8176,-1.8206,-1.8211,-1.8232,-1.8191,-1.8283,-1.8286,-1.8288,-1.8322,-1.8328,-1.8333,0,0,0,0,0,-1.8131,-1.8164,-1.8155,-1.816,-1.8183,-1.8205,-1.8208,-1.82,-1.8183,-1.8198,-1.8197,-1.8183,-1.8227,-1.8209,-1.8214,-1.8237,-1.8281,-1.8285,-1.8288,-1.8319,-1.8327,-1.8333,0,0,0,0,0,0,-1.8163,-1.8164,-1.8155,-1.8191,-1.8198,-1.8201,-1.822,-1.8208,-1.8221,-1.8217,-1.8206,-1.8207,-1.8238,-1.824,-1.822,-1.8275,-1.8251,-1.8256,-1.8273,-1.828,-1.8286,-1.8285,-1.8193,0,0,0,0,0,-1.8174,-1.8192,-1.8192,-1.8224,-1.8228,-1.8223,-1.8233,-1.8226,-1.8233,-1.8236,-1.8237,-1.8244,-1.8259,-1.827,-1.8284,-1.8322,-1.8322,-1.8339,-1.8345,-1.835,-1.8354,-1.8373,-1.8381,-1.8301,-1.8301,-1.8301,0,0,-1.8197,-1.82,-1.8213,-1.823,-1.8235,-1.8254,-1.8226,-1.8247,-1.8261,-1.8239,-1.8266,-1.8267,-1.8274,-1.8307,-1.8322,-1.831,-1.8376,-1.8354,-1.8358,-1.836,-1.8378,-1.8385,-1.8392,-1.8303,-1.8303,-1.8303,0,0,-1.8249,-1.8254,-1.828,-1.8285,-1.8293,-1.8289,-1.8296,-1.83,-1.83,-1.8327,-1.831,-1.8326,-1.8353,-1.8359,-1.8365,-1.8418,-1.8405,-1.8423,-1.8454,-1.8473,-1.8479,-1.8484,-1.8503,-1.851,-1.8427,-1.8427,-1.8427,0,-1.8277,-1.8305,-1.8295,-1.8317,-1.8325,-1.8306,-1.8332,-1.8338,-1.8349,-1.8355,-1.8341,-1.8374,-1.8378,-1.8412,-1.8425,-1.8431,-1.8437,-1.8423,-1.8479,-1.8484,-1.8489,-1.8507,-1.8514,-1.8429,-1.8429,-1.8429,-1.8429,0,-1.8339,-1.8358,-1.8378,-1.839,-1.84,-1.8425,-1.8418,-1.8429,-1.8421,-1.8419,-1.8446,-1.8449,-1.8464,-1.8471,-1.8463,-1.8504,-1.8496,-1.8481,-1.8456,-1.8499,-1.8515,-1.8522,-1.8433,-1.8432,-1.8431,-1.8431,0,0,-1.8412,-1.8418,-1.8425,-1.843,-1.8436,-1.8451,-1.8474,-1.8487,-1.8497,-1.8506,-1.8524,-1.8547,-1.8533,-1.854,-1.8533,-1.8549,-1.859,-1.8532,-1.8532,-1.8542,-1.8634,-1.8646,-1.8654,-1.8581,-1.8583,-1.8584,-1.8634,0,-1.8463,-1.8503,-1.8494,-1.8533,-1.855,-1.8532,-1.8551,-1.8557,-1.8555,-1.8569,-1.8567,-1.8584,-1.8564,-1.8568,-1.8584,-1.8582,-1.8609,-1.8578,-1.8598,-1.8599,-1.8597,-1.8662,-1.8674,-1.8722,-1.864,-1.8641,-1.8642,0,-1.8529,-1.854,-1.858,-1.8583,-1.859,-1.8608,-1.8619,-1.8633,-1.8639,-1.8637,-1.8644,-1.8633,-1.8655,-1.863,-1.866,-1.864,-1.8647,-1.8647,-1.8649,-1.8651,-1.8623,-1.8665,-1.8736,-1.8743,-1.8652,-1.8651,-1.865,0,-1.8578,-1.8602,-1.863,-1.8634,-1.8638,-1.8651,-1.8654,-1.8658,-1.8667,-1.8677,-1.8682,-1.8694,-1.8701,-1.8711,-1.8703,-1.8686,-1.8734,-1.8709,-1.8732,-1.8732,-1.8743,-1.8743,-1.8816,-1.8748,-1.8748,-1.8748,-1.8748,0,-1.8636,-1.8661,-1.8651,-1.8668,-1.8696,-1.8685,-1.8713,-1.8713,-1.8717,-1.8733,-1.8717,-1.8732,-1.8721,-1.8736,-1.873,-1.8755,-1.8758,-1.8756,-1.8755,-1.8758,-1.8758,-1.8763,-1.8759,-1.875,-1.875,-1.8749,-1.8749,0,-1.8696,-1.869,-1.8718,-1.872,-1.8721,-1.8741,-1.8742,-1.8757,-1.8754,-1.8774,-1.8778,-1.8773,-1.8789,-1.8782,-1.8799,-1.8795,-1.8827,-1.8821,-1.8825,-1.8824,-1.8848,-1.8845,-1.8927,-1.8937,-1.8862,-1.8863,-1.8864,0,-1.8733,-1.8752,-1.8755,-1.8765,-1.8768,-1.8784,-1.8793,-1.8783,-1.8792,-1.88,-1.8814,-1.8828,-1.8839,-1.8865,-1.8863,-1.8876,-1.8869,-1.8897,-1.8871,-1.8874,-1.887,-1.8869,-1.887,-1.8902,-1.8903,-1.8904,-1.8904,0,-1.88,-1.8796,-1.8809,-1.8821,-1.8832,-1.8841,-1.8848,-1.8857,-1.8847,-1.8859,-1.8875,-1.8883,-1.89,-1.8914,-1.8925,-1.8927,-1.8914,-1.8913,-1.8919,-1.8922,-1.8924,-1.8923,-1.8839,-1.8911,-1.891,-1.891,-1.8909,-1.8909,-1.885,-1.8865,-1.887,-1.8885,-1.8889,-1.8896,-1.8911,-1.8909,-1.8922,-1.8935,-1.8928,-1.8947,-1.8951,-1.8964,-1.8968,-1.8982,-1.8971,-1.898,-1.8982,-1.8985,-1.8988,-1.8922,-1.8984,-1.8984,-1.8983,-1.8983,-1.8983,0,-1.8915,-1.8917,-1.8931,-1.8942,-1.8953,-1.894,-1.8948,-1.8958,-1.8975,-1.898,-1.8991,-1.9009,-1.9022,-1.9021,-1.9033,-1.9045,-1.9039,-1.9048,-1.9047,-1.9048,-1.8997,-1.899,-1.9053,-1.9053,-1.9053,-1.9053,-1.9053,-1.9053,-1.8951,-1.8977,-1.8973,-1.9001,-1.9002,-1.902,-1.9026,-1.9032,-1.9036,-1.9057,-1.9068,-1.9067,-1.907,-1.9082,-1.9094,-1.9093,-1.9098,-1.9109,-1.9106,-1.9059,-1.9052,-1.9045,-1.9039,-1.9111,-1.9111,-1.9156,-1.9157,-1.9157]}]]